Simultaneous Nadir Overpasses (SNOs) Predictions

Prediction of SNOs between AQUA and NOAA-19 Satellite Orbit:

Table of predicted SNOs for the next 14.0 days since TLE Epoch: 7/5/2025
Index Date (AQUA) Time (AQUA) Lat,Lon (AQUA) SZA (AQUA ) Date (NOAA-19) Time (NOAA-19) Lat,Lon (NOAA-19) SZA (NOAA-19 ) Distance(km) Time Diff (sec)
1 07/05/2025 15:06:17 75.78, -40.54 53.04 07/05/2025 15:05:42 75.76, -40.45 53.02 3.19 35
2 07/05/2025 15:55:35 -75.81, 127.05 126.93 07/05/2025 15:56:41 -75.80, 126.94 126.93 2.97 66
3 07/07/2025 17:13:31 -75.76, 107.78 126.77 07/07/2025 17:12:57 -75.74, 107.71 126.79 2.54 34
4 07/07/2025 18:02:51 75.83, -84.78 53.31 07/07/2025 18:03:52 75.83, -84.71 53.32 1.75 61
5 07/09/2025 19:20:46 75.75,-103.96 53.48 07/09/2025 19:20:09 75.74,-104.05 53.47 2.47 37
6 07/09/2025 20:10:05 -75.82, 63.50 126.45 07/09/2025 20:11:06 -75.83, 63.50 126.44 0.62 61
7 07/11/2025 21:28:00 -75.76, 44.27 126.25 07/11/2025 21:27:22 -75.76, 44.23 126.25 0.99 38
8 07/11/2025 22:17:20 75.84,-148.30 53.84 07/11/2025 22:18:18 75.85,-148.19 53.86 3.31 58
9 07/13/2025 23:35:14 75.74,-167.44 54.05 07/13/2025 23:34:35 75.75,-167.55 54.05 3.36 39
10 07/14/2025 00:24:33 -75.81, 0.03 125.89 07/14/2025 00:25:31 -75.83, -0.01 125.86 2.75 58
11 07/16/2025 01:42:28 -75.78, -19.30 125.59 07/16/2025 01:41:47 -75.75, -19.30 125.62 2.98 41
12 07/16/2025 02:31:47 75.81, 148.26 54.45 07/16/2025 02:32:44 75.84, 148.27 54.49 3.24 57
13 07/18/2025 03:49:41 75.75, 129.03 54.75 07/18/2025 03:49:00 75.78, 129.02 54.77 2.89 41



Historial Predications of SNOs between AQUA and NOAA-19
